Time,TemperatureF,DewpointF,PressureIn,WindDirection,WindDirectionDegrees,WindSpeedMPH,WindSpeedGustMPH,Humidity,HourlyPrecipIn,Conditions,Clouds,dailyrainin,SoftwareType,DateUTC
2013-09-04 00:03:00,64.5,55.7,29.00,South,180,0.0,0.0,73,0.00,,,0.00,WUHU216HW,2013-09-04 05:03:00,
2013-09-04 00:08:00,64.5,56.1,29.00,South,180,0.0,0.0,74,0.00,,,0.00,WUHU216HW,2013-09-04 05:08:00,
2013-09-04 00:13:00,64.2,55.7,29.00,South,180,0.0,0.0,74,0.00,,,0.00,WUHU216HW,2013-09-04 05:13:00,
2013-09-04 00:18:00,64.2,55.7,29.00,South,180,0.0,0.0,74,0.00,,,0.00,WUHU216HW,2013-09-04 05:18:00,
2013-09-04 00:24:00,64.2,55.7,29.00,South,180,0.0,0.0,74,0.00,,,0.00,WUHU216HW,2013-09-04 05:24:00,
2013-09-04 00:29:00,64.2,55.7,29.00,South,180,0.0,0.0,74,0.00,,,0.00,WUHU216HW,2013-09-04 05:29:00,
2013-09-04 00:34:00,64.2,55.7,29.00,South,180,0.0,0.0,74,0.00,,,0.00,WUHU216HW,2013-09-04 05:34:00,
2013-09-04 00:39:00,64.0,55.5,29.00,South,180,0.0,0.0,74,0.00,,,0.00,WUHU216HW,2013-09-04 05:39:00,
2013-09-04 00:44:00,64.0,55.5,29.00,South,180,0.0,0.0,74,0.00,,,0.00,WUHU216HW,2013-09-04 05:44:00,
2013-09-04 00:49:00,64.0,55.5,29.01,South,180,0.0,0.0,74,0.00,,,0.00,WUHU216HW,2013-09-04 05:49:00,
2013-09-04 00:54:00,63.8,55.4,29.00,South,180,0.0,0.0,74,0.00,,,0.00,WUHU216HW,2013-09-04 05:54:00,
2013-09-04 00:59:00,63.6,55.2,29.00,South,180,0.0,0.0,74,0.00,,,0.00,WUHU216HW,2013-09-04 05:59:00,
2013-09-04 01:04:00,63.6,55.2,29.01,South,180,0.0,0.0,74,0.00,,,0.00,WUHU216HW,2013-09-04 06:04:00,
2013-09-04 01:09:00,63.6,55.5,29.00,South,180,0.0,0.0,75,0.00,,,0.00,WUHU216HW,2013-09-04 06:09:00,
2013-09-04 01:14:00,63.6,55.5,29.01,South,180,0.0,0.0,75,0.00,,,0.00,WUHU216HW,2013-09-04 06:14:00,
2013-09-04 01:19:00,63.6,55.5,29.00,South,180,0.0,0.0,75,0.00,,,0.00,WUHU216HW,2013-09-04 06:19:00,
2013-09-04 01:24:00,63.5,55.4,29.00,South,180,0.0,0.0,75,0.00,,,0.00,WUHU216HW,2013-09-04 06:24:00,
2013-09-04 01:30:00,63.5,55.4,29.00,South,180,0.0,0.0,75,0.00,,,0.00,WUHU216HW,2013-09-04 06:30:00,
2013-09-04 01:35:00,63.5,55.4,29.00,South,180,0.0,0.0,75,0.00,,,0.00,WUHU216HW,2013-09-04 06:35:00,
2013-09-04 01:40:00,63.3,55.2,29.01,South,180,0.0,0.0,75,0.00,,,0.00,WUHU216HW,2013-09-04 06:40:00,
2013-09-04 01:45:00,63.3,55.2,29.01,South,180,0.0,0.0,75,0.00,,,0.00,WUHU216HW,2013-09-04 06:45:00,
2013-09-04 01:50:00,63.1,55.0,29.01,South,180,0.0,0.0,75,0.00,,,0.00,WUHU216HW,2013-09-04 06:50:00,
2013-09-04 01:55:00,63.1,55.4,29.00,South,180,0.0,0.0,76,0.00,,,0.00,WUHU216HW,2013-09-04 06:55:00,
2013-09-04 02:00:00,63.1,55.4,29.00,South,180,0.0,0.0,76,0.00,,,0.00,WUHU216HW,2013-09-04 07:00:00,
2013-09-04 02:05:00,63.1,55.0,29.00,South,180,0.0,0.0,75,0.00,,,0.00,WUHU216HW,2013-09-04 07:05:00,
2013-09-04 02:10:00,63.1,55.0,29.00,South,180,0.0,0.0,75,0.00,,,0.00,WUHU216HW,2013-09-04 07:10:00,
2013-09-04 02:15:00,63.1,55.4,29.01,South,180,0.0,0.0,76,0.00,,,0.00,WUHU216HW,2013-09-04 07:15:00,
2013-09-04 02:20:00,63.1,55.4,29.01,South,180,0.0,0.0,76,0.00,,,0.00,WUHU216HW,2013-09-04 07:20:00,
2013-09-04 02:25:00,62.9,55.2,29.01,South,180,0.0,0.0,76,0.00,,,0.00,WUHU216HW,2013-09-04 07:25:00,
2013-09-04 02:30:00,62.9,54.8,29.01,South,180,0.0,0.0,75,0.00,,,0.00,WUHU216HW,2013-09-04 07:30:00,
2013-09-04 02:35:00,62.9,55.2,29.01,South,180,0.0,0.0,76,0.00,,,0.00,WUHU216HW,2013-09-04 07:35:00,
2013-09-04 02:40:00,62.9,55.2,29.01,South,180,0.0,0.0,76,0.00,,,0.00,WUHU216HW,2013-09-04 07:40:00,
2013-09-04 02:45:00,62.7,55.0,29.01,South,180,0.0,0.0,76,0.00,,,0.00,WUHU216HW,2013-09-04 07:45:00,
2013-09-04 02:50:00,62.7,55.0,29.01,South,180,0.0,0.0,76,0.00,,,0.00,WUHU216HW,2013-09-04 07:50:00,
2013-09-04 02:55:00,62.7,55.0,29.01,South,180,0.0,0.0,76,0.00,,,0.00,WUHU216HW,2013-09-04 07:55:00,
2013-09-04 03:00:00,62.7,55.0,29.01,South,180,0.0,0.0,76,0.00,,,0.00,WUHU216HW,2013-09-04 08:00:00,
2013-09-04 03:05:00,62.7,55.0,29.01,South,180,0.0,0.0,76,0.00,,,0.00,WUHU216HW,2013-09-04 08:05:00,
2013-09-04 03:11:00,62.7,55.0,29.01,South,180,0.0,0.0,76,0.00,,,0.00,WUHU216HW,2013-09-04 08:11:00,
2013-09-04 03:16:00,62.7,55.0,29.02,South,180,0.0,0.0,76,0.00,,,0.00,WUHU216HW,2013-09-04 08:16:00,
2013-09-04 03:21:00,62.7,55.0,29.02,South,180,0.0,0.0,76,0.00,,,0.00,WUHU216HW,2013-09-04 08:21:00,
2013-09-04 03:26:00,62.7,55.0,29.02,South,180,0.0,0.0,76,0.00,,,0.00,WUHU216HW,2013-09-04 08:26:00,
2013-09-04 03:31:00,62.4,54.6,29.02,South,180,0.0,0.0,76,0.00,,,0.00,WUHU216HW,2013-09-04 08:31:00,
2013-09-04 03:36:00,62.4,54.6,29.02,South,180,0.0,0.0,76,0.00,,,0.00,WUHU216HW,2013-09-04 08:36:00,
2013-09-04 03:41:00,62.4,54.6,29.02,South,180,0.0,0.0,76,0.00,,,0.00,WUHU216HW,2013-09-04 08:41:00,
2013-09-04 03:46:00,62.4,54.6,29.02,South,180,0.0,0.0,76,0.00,,,0.00,WUHU216HW,2013-09-04 08:46:00,
2013-09-04 03:51:00,62.4,55.0,29.02,South,180,0.0,0.0,77,0.00,,,0.00,WUHU216HW,2013-09-04 08:51:00,
2013-09-04 03:56:00,62.4,55.0,29.02,South,180,0.0,0.0,77,0.00,,,0.00,WUHU216HW,2013-09-04 08:56:00,
2013-09-04 04:01:00,62.4,55.0,29.03,South,180,0.0,0.0,77,0.00,,,0.00,WUHU216HW,2013-09-04 09:01:00,
2013-09-04 04:06:00,62.4,55.0,29.03,South,180,0.0,0.0,77,0.00,,,0.00,WUHU216HW,2013-09-04 09:06:00,
2013-09-04 04:11:00,62.2,54.8,29.02,South,180,0.0,0.0,77,0.00,,,0.00,WUHU216HW,2013-09-04 09:11:00,
2013-09-04 04:16:00,62.2,54.8,29.02,South,180,0.0,0.0,77,0.00,,,0.00,WUHU216HW,2013-09-04 09:16:00,
2013-09-04 04:21:00,62.2,54.8,29.03,South,180,0.0,0.0,77,0.00,,,0.00,WUHU216HW,2013-09-04 09:21:00,
2013-09-04 04:26:00,62.0,54.7,29.03,South,180,0.0,0.0,77,0.00,,,0.00,WUHU216HW,2013-09-04 09:26:00,
2013-09-04 04:31:00,61.8,54.5,29.03,South,180,0.0,0.0,77,0.00,,,0.00,WUHU216HW,2013-09-04 09:31:00,
2013-09-04 04:36:00,61.8,54.5,29.02,South,180,0.0,0.0,77,0.00,,,0.00,WUHU216HW,2013-09-04 09:36:00,
2013-09-04 04:41:00,61.7,54.4,29.03,South,180,0.0,0.0,77,0.00,,,0.00,WUHU216HW,2013-09-04 09:41:00,
2013-09-04 04:48:00,61.7,54.4,29.03,South,180,0.0,0.0,77,0.00,,,0.00,WUHU216HW,2013-09-04 09:48:00,
2013-09-04 04:53:00,61.5,54.2,29.02,South,180,0.0,0.0,77,0.00,,,0.00,WUHU216HW,2013-09-04 09:53:00,
2013-09-04 04:58:00,61.5,54.2,29.03,South,180,0.0,0.0,77,0.00,,,0.00,WUHU216HW,2013-09-04 09:58:00,
2013-09-04 05:03:00,61.3,54.4,29.03,South,180,0.0,0.0,78,0.00,,,0.00,WUHU216HW,2013-09-04 10:03:00,
2013-09-04 05:08:00,61.3,54.4,29.03,South,180,0.0,0.0,78,0.00,,,0.00,WUHU216HW,2013-09-04 10:08:00,
2013-09-04 05:13:00,61.1,54.2,29.04,South,180,0.0,0.0,78,0.00,,,0.00,WUHU216HW,2013-09-04 10:13:00,
2013-09-04 05:18:00,60.9,54.1,29.04,South,180,0.0,0.0,78,0.00,,,0.00,WUHU216HW,2013-09-04 10:18:00,
2013-09-04 05:23:00,60.9,54.1,29.04,South,180,0.0,0.0,78,0.00,,,0.00,WUHU216HW,2013-09-04 10:23:00,
2013-09-04 05:28:00,60.6,53.9,29.04,South,180,0.0,0.0,78,0.00,,,0.00,WUHU216HW,2013-09-04 10:28:00,
2013-09-04 05:33:00,60.6,54.1,29.04,South,180,0.0,0.0,79,0.00,,,0.00,WUHU216HW,2013-09-04 10:33:00,
2013-09-04 05:38:00,60.6,54.1,29.04,South,180,0.0,0.0,79,0.00,,,0.00,WUHU216HW,2013-09-04 10:38:00,
2013-09-04 05:43:00,60.6,54.1,29.05,South,180,0.0,0.0,79,0.00,,,0.00,WUHU216HW,2013-09-04 10:43:00,
2013-09-04 05:48:00,60.4,53.9,29.04,South,180,0.0,0.0,79,0.00,,,0.00,WUHU216HW,2013-09-04 10:48:00,
2013-09-04 05:53:00,60.4,54.3,29.04,South,180,0.0,0.0,80,0.00,,,0.00,WUHU216HW,2013-09-04 10:53:00,
2013-09-04 05:58:00,60.4,54.3,29.05,South,180,0.0,0.0,80,0.00,,,0.00,WUHU216HW,2013-09-04 10:58:00,
2013-09-04 06:03:00,60.2,54.1,29.05,South,180,0.0,0.0,80,0.00,,,0.00,WUHU216HW,2013-09-04 11:03:00,
2013-09-04 06:09:00,60.0,53.9,29.05,South,180,0.0,0.0,80,0.00,,,0.00,WUHU216HW,2013-09-04 11:09:00,
2013-09-04 06:14:00,60.0,53.9,29.05,South,180,0.0,0.0,80,0.00,,,0.00,WUHU216HW,2013-09-04 11:14:00,
2013-09-04 06:19:00,60.0,53.9,29.05,South,180,0.0,0.0,80,0.00,,,0.00,WUHU216HW,2013-09-04 11:19:00,
2013-09-04 06:24:00,59.9,53.7,29.05,South,180,0.0,0.0,80,0.00,,,0.00,WUHU216HW,2013-09-04 11:24:00,
2013-09-04 06:29:00,59.7,53.6,29.06,South,180,0.0,0.0,80,0.00,,,0.00,WUHU216HW,2013-09-04 11:29:00,
2013-09-04 06:34:00,59.7,53.6,29.06,South,180,0.0,0.0,80,0.00,,,0.00,WUHU216HW,2013-09-04 11:34:00,
2013-09-04 06:39:00,59.7,53.9,29.06,South,180,0.0,0.0,81,0.00,,,0.00,WUHU216HW,2013-09-04 11:39:00,
2013-09-04 06:44:00,59.7,53.9,29.06,South,180,0.0,0.0,81,0.00,,,0.00,WUHU216HW,2013-09-04 11:44:00,
2013-09-04 06:49:00,59.5,53.7,29.07,South,180,0.0,0.0,81,0.00,,,0.00,WUHU216HW,2013-09-04 11:49:00,
2013-09-04 06:54:00,59.7,53.9,29.06,South,180,0.0,0.0,81,0.00,,,0.00,WUHU216HW,2013-09-04 11:54:00,
2013-09-04 06:59:00,59.5,53.7,29.06,South,180,0.0,0.0,81,0.00,,,0.00,WUHU216HW,2013-09-04 11:59:00,
2013-09-04 07:04:00,59.7,53.9,29.06,South,180,0.0,0.0,81,0.00,,,0.00,WUHU216HW,2013-09-04 12:04:00,
2013-09-04 07:09:00,59.7,53.9,29.07,South,180,0.0,0.0,81,0.00,,,0.00,WUHU216HW,2013-09-04 12:09:00,
2013-09-04 07:14:00,59.7,53.9,29.07,South,180,0.0,0.0,81,0.00,,,0.00,WUHU216HW,2013-09-04 12:14:00,
2013-09-04 07:19:00,59.9,54.4,29.07,South,180,0.0,0.0,82,0.00,,,0.00,WUHU216HW,2013-09-04 12:19:00,
2013-09-04 07:24:00,60.0,54.6,29.07,South,180,0.0,0.0,82,0.00,,,0.00,WUHU216HW,2013-09-04 12:24:00,
2013-09-04 07:29:00,60.0,54.6,29.07,South,180,0.0,0.0,82,0.00,,,0.00,WUHU216HW,2013-09-04 12:29:00,
2013-09-04 07:34:00,60.4,54.9,29.07,South,180,0.0,0.0,82,0.00,,,0.00,WUHU216HW,2013-09-04 12:34:00,
2013-09-04 07:39:00,60.6,55.1,29.07,South,180,0.0,0.0,82,0.00,,,0.00,WUHU216HW,2013-09-04 12:39:00,
2013-09-04 07:45:00,60.6,54.8,29.07,South,180,0.0,0.0,81,0.00,,,0.00,WUHU216HW,2013-09-04 12:45:00,
2013-09-04 07:50:00,60.9,55.1,29.07,South,180,0.0,0.0,81,0.00,,,0.00,WUHU216HW,2013-09-04 12:50:00,
2013-09-04 07:55:00,61.3,55.4,29.07,South,180,0.0,0.0,81,0.00,,,0.00,WUHU216HW,2013-09-04 12:55:00,
2013-09-04 08:00:00,61.5,55.6,29.07,South,180,0.0,0.0,81,0.00,,,0.00,WUHU216HW,2013-09-04 13:00:00,
2013-09-04 08:05:00,62.0,56.1,29.07,South,180,0.0,0.0,81,0.00,,,0.00,WUHU216HW,2013-09-04 13:05:00,
2013-09-04 08:10:00,62.4,56.8,29.07,South,180,0.0,0.0,82,0.00,,,0.00,WUHU216HW,2013-09-04 13:10:00,
2013-09-04 08:15:00,62.7,56.9,29.07,South,180,0.0,0.0,82,0.00,,,0.00,WUHU216HW,2013-09-04 13:15:00,
2013-09-04 08:20:00,63.1,57.1,29.07,South,180,0.0,0.0,81,0.00,,,0.00,WUHU216HW,2013-09-04 13:20:00,
2013-09-04 08:25:00,63.3,57.3,29.07,South,180,0.0,0.0,81,0.00,,,0.00,WUHU216HW,2013-09-04 13:25:00,
2013-09-04 08:30:00,63.6,57.7,29.07,South,180,0.0,0.0,81,0.00,,,0.00,WUHU216HW,2013-09-04 13:30:00,
2013-09-04 08:35:00,64.0,58.0,29.07,South,180,0.0,0.0,81,0.00,,,0.00,WUHU216HW,2013-09-04 13:35:00,
2013-09-04 08:40:00,64.4,58.4,29.07,South,180,0.0,0.0,81,0.00,,,0.00,WUHU216HW,2013-09-04 13:40:00,
2013-09-04 08:45:00,64.7,58.7,29.07,South,180,0.0,0.0,81,0.00,,,0.00,WUHU216HW,2013-09-04 13:45:00,
2013-09-04 08:50:00,65.1,59.1,29.07,South,180,0.0,0.0,81,0.00,,,0.00,WUHU216HW,2013-09-04 13:50:00,
2013-09-04 08:55:00,65.4,59.1,29.07,South,180,0.0,0.0,80,0.00,,,0.00,WUHU216HW,2013-09-04 13:55:00,
2013-09-04 09:00:00,66.0,59.7,29.07,South,180,0.0,0.0,80,0.00,,,0.00,WUHU216HW,2013-09-04 14:00:00,
2013-09-04 09:05:00,66.3,60.0,29.07,South,180,0.0,0.0,80,0.00,,,0.00,WUHU216HW,2013-09-04 14:05:00,
2013-09-04 09:10:00,66.9,60.6,29.07,South,180,0.0,0.0,80,0.00,,,0.00,WUHU216HW,2013-09-04 14:10:00,
2013-09-04 09:15:00,67.2,60.9,29.07,South,180,0.0,0.0,80,0.00,,,0.00,WUHU216HW,2013-09-04 14:15:00,
2013-09-04 09:21:00,67.6,61.3,29.07,South,180,0.0,0.0,80,0.00,,,0.00,WUHU216HW,2013-09-04 14:21:00,
2013-09-04 09:26:00,68.1,61.4,29.07,South,180,0.0,0.0,79,0.00,,,0.00,WUHU216HW,2013-09-04 14:26:00,
2013-09-04 09:31:00,68.5,61.8,29.08,South,180,0.0,0.0,79,0.00,,,0.00,WUHU216HW,2013-09-04 14:31:00,
2013-09-04 09:36:00,68.9,62.1,29.08,South,180,0.0,0.0,79,0.00,,,0.00,WUHU216HW,2013-09-04 14:36:00,
2013-09-04 09:41:00,69.6,62.7,29.08,South,180,0.0,0.0,79,0.00,,,0.00,WUHU216HW,2013-09-04 14:41:00,
2013-09-04 09:46:00,69.9,63.1,29.08,South,180,0.0,0.0,79,0.00,,,0.00,WUHU216HW,2013-09-04 14:46:00,
2013-09-04 09:51:00,70.5,63.2,29.08,South,180,0.0,0.0,78,0.00,,,0.00,WUHU216HW,2013-09-04 14:51:00,
2013-09-04 09:56:00,71.2,64.0,29.08,South,180,0.0,0.0,78,0.00,,,0.00,WUHU216HW,2013-09-04 14:56:00,
2013-09-04 10:01:00,71.6,63.9,29.08,South,180,0.0,0.0,77,0.00,,,0.00,WUHU216HW,2013-09-04 15:01:00,
2013-09-04 10:06:00,72.1,64.1,29.08,South,180,0.0,0.0,76,0.00,,,0.00,WUHU216HW,2013-09-04 15:06:00,
2013-09-04 10:11:00,72.6,64.5,29.08,South,180,0.0,0.0,75,0.00,,,0.00,WUHU216HW,2013-09-04 15:11:00,
2013-09-04 10:16:00,73.2,64.4,29.08,South,180,0.0,0.0,74,0.00,,,0.00,WUHU216HW,2013-09-04 15:16:00,
2013-09-04 10:21:00,73.5,64.8,29.08,South,180,0.0,0.0,74,0.00,,,0.00,WUHU216HW,2013-09-04 15:21:00,
2013-09-04 10:26:00,74.1,64.9,29.09,South,180,0.0,0.0,73,0.00,,,0.00,WUHU216HW,2013-09-04 15:26:00,
2013-09-04 10:31:00,74.4,65.2,29.09,South,180,0.0,0.0,73,0.00,,,0.00,WUHU216HW,2013-09-04 15:31:00,
2013-09-04 10:36:00,75.0,65.3,29.08,South,180,0.0,0.0,72,0.00,,,0.00,WUHU216HW,2013-09-04 15:36:00,
2013-09-04 10:41:00,75.3,65.3,29.08,South,180,0.0,0.0,71,0.00,,,0.00,WUHU216HW,2013-09-04 15:41:00,
2013-09-04 10:46:00,75.7,65.3,29.09,South,180,0.0,0.0,70,0.00,,,0.00,WUHU216HW,2013-09-04 15:46:00,
2013-09-04 10:51:00,76.2,64.9,29.09,South,180,0.0,0.0,68,0.00,,,0.00,WUHU216HW,2013-09-04 15:51:00,
2013-09-04 10:57:00,76.6,65.3,29.09,South,180,0.0,0.0,68,0.00,,,0.00,WUHU216HW,2013-09-04 15:57:00,
2013-09-04 11:02:00,76.8,65.0,29.09,South,180,0.0,0.0,67,0.00,,,0.00,WUHU216HW,2013-09-04 16:02:00,
2013-09-04 11:07:00,77.3,65.5,29.09,South,180,0.0,0.0,67,0.00,,,0.00,WUHU216HW,2013-09-04 16:07:00,
2013-09-04 11:12:00,77.7,65.8,29.09,South,180,0.0,0.0,67,0.00,,,0.00,WUHU216HW,2013-09-04 16:12:00,
2013-09-04 11:17:00,78.0,65.7,29.09,South,180,0.0,0.0,66,0.00,,,0.00,WUHU216HW,2013-09-04 16:17:00,
2013-09-04 11:22:00,78.6,65.8,29.08,South,180,0.0,0.0,65,0.00,,,0.00,WUHU216HW,2013-09-04 16:22:00,
2013-09-04 11:27:00,78.6,65.8,29.09,South,180,0.0,0.0,65,0.00,,,0.00,WUHU216HW,2013-09-04 16:27:00,
2013-09-04 11:32:00,79.1,65.9,29.09,South,180,0.0,0.0,64,0.00,,,0.00,WUHU216HW,2013-09-04 16:32:00,
2013-09-04 11:37:00,79.5,66.2,29.08,South,180,0.0,0.0,64,0.00,,,0.00,WUHU216HW,2013-09-04 16:37:00,
2013-09-04 11:42:00,79.8,66.1,29.08,South,180,0.0,0.0,63,0.00,,,0.00,WUHU216HW,2013-09-04 16:42:00,
2013-09-04 11:47:00,80.2,66.0,29.08,South,180,0.0,0.0,62,0.00,,,0.00,WUHU216HW,2013-09-04 16:47:00,
2013-09-04 11:52:00,80.4,65.7,29.08,South,180,0.0,0.0,61,0.00,,,0.00,WUHU216HW,2013-09-04 16:52:00,
2013-09-04 11:57:00,80.6,65.9,29.08,South,180,0.0,0.0,61,0.00,,,0.00,WUHU216HW,2013-09-04 16:57:00,
2013-09-04 12:02:00,80.7,65.6,29.08,South,180,0.0,0.0,60,0.00,,,0.00,WUHU216HW,2013-09-04 17:02:00,
2013-09-04 12:07:00,81.1,65.9,29.08,South,180,0.0,0.0,60,0.00,,,0.00,WUHU216HW,2013-09-04 17:07:00,
2013-09-04 12:12:00,81.3,66.1,29.08,South,180,0.0,0.0,60,0.00,,,0.00,WUHU216HW,2013-09-04 17:12:00,
2013-09-04 12:17:00,81.6,65.9,29.08,South,180,0.0,0.0,59,0.00,,,0.00,WUHU216HW,2013-09-04 17:17:00,
2013-09-04 12:22:00,82.0,66.2,29.08,South,180,0.0,0.0,59,0.00,,,0.00,WUHU216HW,2013-09-04 17:22:00,
2013-09-04 12:28:00,82.4,66.5,29.08,South,180,1.5,1.5,59,0.00,,,0.00,WUHU216HW,2013-09-04 17:28:00,
2013-09-04 12:33:00,82.7,66.9,29.07,South,180,0.0,1.5,59,0.00,,,0.00,WUHU216HW,2013-09-04 17:33:00,
2013-09-04 12:38:00,83.1,66.7,29.07,South,180,0.0,1.5,58,0.00,,,0.00,WUHU216HW,2013-09-04 17:38:00,
2013-09-04 12:43:00,83.1,66.2,29.07,South,180,0.0,0.0,58,0.00,,,0.00,WUHU216HW,2013-09-04 17:43:00,
2013-09-04 12:48:00,83.3,66.9,29.07,South,180,0.0,0.0,58,0.00,,,0.00,WUHU216HW,2013-09-04 17:48:00,
2013-09-04 12:53:00,83.3,66.4,29.07,South,180,0.0,0.0,57,0.00,,,0.00,WUHU216HW,2013-09-04 17:53:00,
2013-09-04 12:58:00,83.3,66.4,29.06,South,180,0.0,0.0,57,0.00,,,0.00,WUHU216HW,2013-09-04 17:58:00,
2013-09-04 13:03:00,83.4,66.6,29.07,South,180,0.0,0.0,57,0.00,,,0.00,WUHU216HW,2013-09-04 18:03:00,
2013-09-04 13:08:00,83.4,66.6,29.07,South,180,0.0,0.0,57,0.00,,,0.00,WUHU216HW,2013-09-04 18:08:00,
2013-09-04 13:13:00,83.8,66.9,29.07,South,180,0.0,0.0,57,0.00,,,0.00,WUHU216HW,2013-09-04 18:13:00,
2013-09-04 13:18:00,84.0,67.1,29.07,South,180,0.0,0.0,57,0.00,,,0.00,WUHU216HW,2013-09-04 18:18:00,
2013-09-04 13:23:00,84.2,66.8,29.07,South,180,0.0,0.0,56,0.00,,,0.00,WUHU216HW,2013-09-04 18:23:00,
2013-09-04 13:28:00,84.3,66.9,29.07,South,180,0.0,0.0,56,0.00,,,0.00,WUHU216HW,2013-09-04 18:28:00,
2013-09-04 13:33:00,84.5,67.1,29.07,SSW,203,0.0,0.0,56,0.00,,,0.00,WUHU216HW,2013-09-04 18:33:00,
2013-09-04 13:38:00,84.7,66.7,29.06,South,180,0.0,0.0,55,0.00,,,0.00,WUHU216HW,2013-09-04 18:38:00,
2013-09-04 13:43:00,84.7,66.7,29.06,South,180,0.0,0.0,55,0.00,,,0.00,WUHU216HW,2013-09-04 18:43:00,
2013-09-04 13:48:00,84.7,66.2,29.06,South,180,0.0,0.0,54,0.00,,,0.00,WUHU216HW,2013-09-04 18:48:00,
2013-09-04 13:53:00,84.9,66.9,29.06,SSW,203,0.0,5.1,55,0.00,,,0.00,WUHU216HW,2013-09-04 18:53:00,
2013-09-04 13:59:00,85.2,66.7,29.06,SSW,203,0.0,5.1,54,0.00,,,0.00,WUHU216HW,2013-09-04 18:59:00,
2013-09-04 14:04:00,85.4,66.3,29.06,SSW,203,0.0,0.0,53,0.00,,,0.00,WUHU216HW,2013-09-04 19:04:00,
2013-09-04 14:09:00,85.6,67.0,29.06,SSW,203,0.0,0.0,54,0.00,,,0.00,WUHU216HW,2013-09-04 19:09:00,
2013-09-04 14:14:00,85.8,67.2,29.06,SSW,203,0.0,0.0,54,0.00,,,0.00,WUHU216HW,2013-09-04 19:14:00,
2013-09-04 14:19:00,85.8,67.5,29.06,SSW,203,0.0,0.0,54,0.00,,,0.00,WUHU216HW,2013-09-04 19:19:00,
2013-09-04 14:24:00,86.1,67.0,29.06,SSW,203,0.0,0.0,53,0.00,,,0.00,WUHU216HW,2013-09-04 19:24:00,
2013-09-04 14:29:00,86.0,66.8,29.06,SSW,203,0.0,0.0,53,0.00,,,0.00,WUHU216HW,2013-09-04 19:29:00,
2013-09-04 14:34:00,86.1,66.5,29.05,SSW,203,0.0,0.0,52,0.00,,,0.00,WUHU216HW,2013-09-04 19:34:00,
2013-09-04 14:39:00,86.1,66.5,29.05,SSW,203,0.0,0.0,52,0.00,,,0.00,WUHU216HW,2013-09-04 19:39:00,
2013-09-04 14:44:00,86.1,65.9,29.05,SSW,203,0.0,0.0,51,0.00,,,0.00,WUHU216HW,2013-09-04 19:44:00,
2013-09-04 14:49:00,86.1,65.9,29.06,SSW,203,0.0,0.0,51,0.00,,,0.00,WUHU216HW,2013-09-04 19:49:00,
2013-09-04 14:54:00,86.1,65.9,29.05,SSW,203,0.0,0.0,51,0.00,,,0.00,WUHU216HW,2013-09-04 19:54:00,
2013-09-04 14:59:00,86.3,66.6,29.06,SSW,203,0.0,0.0,52,0.00,,,0.00,WUHU216HW,2013-09-04 19:59:00,
2013-09-04 15:05:00,86.5,66.8,29.05,SSW,203,0.0,0.0,52,0.00,,,0.00,WUHU216HW,2013-09-04 20:05:00,
2013-09-04 15:10:00,86.7,65.9,29.05,SSW,203,0.0,0.0,50,0.00,,,0.00,WUHU216HW,2013-09-04 20:10:00,
2013-09-04 15:15:00,86.5,65.7,29.05,SSW,203,0.0,0.0,50,0.00,,,0.00,WUHU216HW,2013-09-04 20:15:00,
2013-09-04 15:20:00,86.1,65.4,29.05,SSW,203,0.0,0.0,50,0.00,,,0.00,WUHU216HW,2013-09-04 20:20:00,
2013-09-04 15:25:00,85.8,65.6,29.05,SSW,203,0.0,0.0,51,0.00,,,0.00,WUHU216HW,2013-09-04 20:25:00,
2013-09-04 15:30:00,85.8,65.6,29.05,SSW,203,0.0,0.0,51,0.00,,,0.00,WUHU216HW,2013-09-04 20:30:00,
2013-09-04 15:35:00,85.8,65.6,29.04,SSW,203,0.0,0.0,51,0.00,,,0.00,WUHU216HW,2013-09-04 20:35:00,
2013-09-04 15:40:00,85.8,65.6,29.04,SSW,203,0.0,0.0,51,0.00,,,0.00,WUHU216HW,2013-09-04 20:40:00,
2013-09-04 15:45:00,85.8,65.1,29.04,SSW,203,0.0,0.0,50,0.00,,,0.00,WUHU216HW,2013-09-04 20:45:00,
2013-09-04 15:50:00,85.8,65.6,29.04,SSW,203,0.0,0.0,51,0.00,,,0.00,WUHU216HW,2013-09-04 20:50:00,
2013-09-04 15:55:00,85.8,65.6,29.04,SSW,203,0.0,0.0,51,0.00,,,0.00,WUHU216HW,2013-09-04 20:55:00,
2013-09-04 16:00:00,86.1,65.9,29.04,SSW,203,0.0,0.0,51,0.00,,,0.00,WUHU216HW,2013-09-04 21:00:00,
2013-09-04 16:05:00,86.1,65.9,29.04,SSW,203,0.0,0.0,51,0.00,,,0.00,WUHU216HW,2013-09-04 21:05:00,
2013-09-04 16:11:00,86.1,65.4,29.04,SSW,203,0.0,0.0,50,0.00,,,0.00,WUHU216HW,2013-09-04 21:11:00,
2013-09-04 16:16:00,86.1,65.4,29.04,SSW,203,0.0,0.0,50,0.00,,,0.00,WUHU216HW,2013-09-04 21:16:00,
2013-09-04 16:21:00,85.8,65.1,29.04,SSW,203,0.0,0.0,50,0.00,,,0.00,WUHU216HW,2013-09-04 21:21:00,
2013-09-04 16:26:00,85.6,64.3,29.04,SSW,203,0.0,0.0,49,0.00,,,0.00,WUHU216HW,2013-09-04 21:26:00,
2013-09-04 16:31:00,85.4,64.8,29.03,SSW,203,0.0,0.0,50,0.00,,,0.00,WUHU216HW,2013-09-04 21:31:00,
2013-09-04 16:36:00,85.2,64.6,29.03,SSW,203,0.0,0.0,50,0.00,,,0.00,WUHU216HW,2013-09-04 21:36:00,
2013-09-04 16:41:00,84.9,64.8,29.04,SSW,203,0.0,0.0,51,0.00,,,0.00,WUHU216HW,2013-09-04 21:41:00,
2013-09-04 16:46:00,84.9,64.8,29.03,SSW,203,0.0,0.0,51,0.00,,,0.00,WUHU216HW,2013-09-04 21:46:00,
2013-09-04 16:51:00,84.7,65.2,29.03,SSW,203,0.0,0.0,52,0.00,,,0.00,WUHU216HW,2013-09-04 21:51:00,
2013-09-04 16:56:00,84.7,65.2,29.03,SSW,203,0.0,0.0,52,0.00,,,0.00,WUHU216HW,2013-09-04 21:56:00,
2013-09-04 17:01:00,84.7,64.6,29.03,SSW,203,0.0,0.0,51,0.00,,,0.00,WUHU216HW,2013-09-04 22:01:00,
2013-09-04 17:06:00,84.7,65.2,29.03,SSW,203,0.0,0.0,52,0.00,,,0.00,WUHU216HW,2013-09-04 22:06:00,
2013-09-04 17:12:00,84.7,65.2,29.03,SSW,203,0.0,0.0,52,0.00,,,0.00,WUHU216HW,2013-09-04 22:12:00,
2013-09-04 17:17:00,84.7,65.2,29.03,SSW,203,0.0,0.0,52,0.00,,,0.00,WUHU216HW,2013-09-04 22:17:00,
2013-09-04 17:22:00,84.7,65.2,29.03,SSW,203,0.0,0.0,52,0.00,,,0.00,WUHU216HW,2013-09-04 22:22:00,
2013-09-04 17:27:00,84.5,65.0,29.03,SSW,203,0.0,0.0,52,0.00,,,0.00,WUHU216HW,2013-09-04 22:27:00,
2013-09-04 17:32:00,84.3,65.4,29.03,SSW,203,0.0,0.0,53,0.00,,,0.00,WUHU216HW,2013-09-04 22:32:00,
2013-09-04 17:37:00,84.0,65.5,29.03,SSW,203,0.0,0.0,54,0.00,,,0.00,WUHU216HW,2013-09-04 22:37:00,
2013-09-04 17:42:00,84.0,65.5,29.03,SSW,203,0.0,0.0,54,0.00,,,0.00,WUHU216HW,2013-09-04 22:42:00,
2013-09-04 17:47:00,83.8,65.9,29.03,SSW,203,0.0,0.0,55,0.00,,,0.00,WUHU216HW,2013-09-04 22:47:00,
2013-09-04 17:52:00,83.6,65.7,29.03,SSW,203,0.0,0.0,55,0.00,,,0.00,WUHU216HW,2013-09-04 22:52:00,
2013-09-04 17:57:00,83.6,66.2,29.03,SSW,203,0.0,0.0,56,0.00,,,0.00,WUHU216HW,2013-09-04 22:57:00,
2013-09-04 18:02:00,83.4,66.0,29.03,SSW,203,0.0,0.0,56,0.00,,,0.00,WUHU216HW,2013-09-04 23:02:00,
2013-09-04 18:07:00,83.3,66.4,29.03,SSW,203,0.0,0.0,57,0.00,,,0.00,WUHU216HW,2013-09-04 23:07:00,
2013-09-04 18:13:00,83.1,66.2,29.03,SSW,203,0.0,0.0,57,0.00,,,0.00,WUHU216HW,2013-09-04 23:13:00,
2013-09-04 18:18:00,83.1,66.7,29.03,SSW,203,0.0,0.0,58,0.00,,,0.00,WUHU216HW,2013-09-04 23:18:00,
2013-09-04 18:23:00,82.9,66.5,29.03,SSW,203,0.0,0.0,58,0.00,,,0.00,WUHU216HW,2013-09-04 23:23:00,
2013-09-04 18:28:00,82.5,66.2,29.03,SSW,203,0.0,0.0,58,0.00,,,0.00,WUHU216HW,2013-09-04 23:28:00,
2013-09-04 18:33:00,82.5,66.7,29.03,SSW,203,0.0,0.0,59,0.00,,,0.00,WUHU216HW,2013-09-04 23:33:00,
2013-09-04 18:38:00,82.2,66.4,29.03,SSW,203,0.0,0.0,59,0.00,,,0.00,WUHU216HW,2013-09-04 23:38:00,
2013-09-04 18:43:00,82.0,66.2,29.04,SSW,203,0.0,0.0,59,0.00,,,0.00,WUHU216HW,2013-09-04 23:43:00,
2013-09-04 18:48:00,81.6,65.9,29.03,SSW,203,0.0,0.0,59,0.00,,,0.00,WUHU216HW,2013-09-04 23:48:00,
2013-09-04 18:53:00,81.5,65.7,29.03,SSW,203,0.0,0.0,59,0.00,,,0.00,WUHU216HW,2013-09-04 23:53:00,
2013-09-04 18:58:00,81.3,66.1,29.03,SSW,203,0.0,0.0,60,0.00,,,0.00,WUHU216HW,2013-09-04 23:58:00,
2013-09-04 19:03:00,81.3,66.5,29.03,SSW,203,0.0,0.0,61,0.00,,,0.00,WUHU216HW,2013-09-05 00:03:00,
2013-09-04 19:08:00,80.9,66.2,29.03,SSW,203,0.0,0.0,61,0.00,,,0.00,WUHU216HW,2013-09-05 00:08:00,
2013-09-04 19:14:00,80.7,66.5,29.03,SSW,203,0.0,0.0,62,0.00,,,0.00,WUHU216HW,2013-09-05 00:14:00,
2013-09-04 19:19:00,80.4,66.2,29.03,SSW,203,0.0,0.0,62,0.00,,,0.00,WUHU216HW,2013-09-05 00:19:00,
2013-09-04 19:24:00,80.2,66.0,29.03,SSW,203,0.0,0.0,62,0.00,,,0.00,WUHU216HW,2013-09-05 00:24:00,
2013-09-04 19:29:00,80.0,66.3,29.03,SSW,203,0.0,0.0,63,0.00,,,0.00,WUHU216HW,2013-09-05 00:29:00,
2013-09-04 19:34:00,79.7,65.9,29.03,SSW,203,0.0,0.0,63,0.00,,,0.00,WUHU216HW,2013-09-05 00:34:00,
2013-09-04 19:39:00,79.5,66.2,29.03,SSW,203,0.0,0.0,64,0.00,,,0.00,WUHU216HW,2013-09-05 00:39:00,
2013-09-04 19:44:00,79.1,65.9,29.03,SSW,203,0.0,0.0,64,0.00,,,0.00,WUHU216HW,2013-09-05 00:44:00,
2013-09-04 19:49:00,78.9,66.1,29.03,SSW,203,0.0,0.0,65,0.00,,,0.00,WUHU216HW,2013-09-05 00:49:00,
2013-09-04 19:54:00,78.6,65.8,29.04,SSW,203,0.0,0.0,65,0.00,,,0.00,WUHU216HW,2013-09-05 00:54:00,
2013-09-04 19:59:00,78.6,65.8,29.04,SSW,203,0.0,0.0,65,0.00,,,0.00,WUHU216HW,2013-09-05 00:59:00,
2013-09-04 20:04:00,78.2,65.9,29.04,SSW,203,0.0,0.0,66,0.00,,,0.00,WUHU216HW,2013-09-05 01:04:00,
2013-09-04 20:09:00,78.0,65.7,29.04,SSW,203,0.0,0.0,66,0.00,,,0.00,WUHU216HW,2013-09-05 01:09:00,
2013-09-04 20:15:00,77.7,65.4,29.04,SSW,203,0.0,0.0,66,0.00,,,0.00,WUHU216HW,2013-09-05 01:15:00,
2013-09-04 20:20:00,77.5,65.6,29.04,SSW,203,0.0,0.0,67,0.00,,,0.00,WUHU216HW,2013-09-05 01:20:00,
2013-09-04 20:25:00,77.3,65.5,29.04,SSW,203,0.0,0.0,67,0.00,,,0.00,WUHU216HW,2013-09-05 01:25:00,
2013-09-04 20:30:00,77.0,65.6,29.04,SSW,203,0.0,0.0,68,0.00,,,0.00,WUHU216HW,2013-09-05 01:30:00,
2013-09-04 20:35:00,76.8,65.4,29.04,SSW,203,0.0,0.0,68,0.00,,,0.00,WUHU216HW,2013-09-05 01:35:00,
2013-09-04 20:40:00,76.6,65.3,29.04,SSW,203,0.0,0.0,68,0.00,,,0.00,WUHU216HW,2013-09-05 01:40:00,
2013-09-04 20:45:00,76.2,64.9,29.04,SSW,203,0.0,0.0,68,0.00,,,0.00,WUHU216HW,2013-09-05 01:45:00,
2013-09-04 20:50:00,76.1,64.7,29.04,SSW,203,0.0,0.0,68,0.00,,,0.00,WUHU216HW,2013-09-05 01:50:00,
2013-09-04 20:55:00,75.7,64.8,29.05,SSW,203,0.0,0.0,69,0.00,,,0.00,WUHU216HW,2013-09-05 01:55:00,
2013-09-04 21:00:00,75.3,64.4,29.05,SSW,203,0.0,0.0,69,0.00,,,0.00,WUHU216HW,2013-09-05 02:00:00,
2013-09-04 21:05:00,75.3,64.9,29.05,SSW,203,0.0,0.0,70,0.00,,,0.00,WUHU216HW,2013-09-05 02:05:00,
2013-09-04 21:10:00,75.0,64.5,29.05,SSW,203,0.0,0.0,70,0.00,,,0.00,WUHU216HW,2013-09-05 02:10:00,
2013-09-04 21:16:00,75.0,64.9,29.05,SSW,203,0.0,0.0,71,0.00,,,0.00,WUHU216HW,2013-09-05 02:16:00,
2013-09-04 21:21:00,74.8,64.8,29.06,SSW,203,0.0,0.0,71,0.00,,,0.00,WUHU216HW,2013-09-05 02:21:00,
2013-09-04 21:26:00,74.8,64.8,29.06,SSW,203,0.0,0.0,71,0.00,,,0.00,WUHU216HW,2013-09-05 02:26:00,
2013-09-04 21:31:00,74.8,65.2,29.06,SSW,203,0.0,0.0,72,0.00,,,0.00,WUHU216HW,2013-09-05 02:31:00,
2013-09-04 21:36:00,74.4,64.8,29.05,SSW,203,0.0,0.0,72,0.00,,,0.00,WUHU216HW,2013-09-05 02:36:00,
2013-09-04 21:41:00,74.4,64.8,29.06,SSW,203,0.0,0.0,72,0.00,,,0.00,WUHU216HW,2013-09-05 02:41:00,
2013-09-04 21:46:00,74.3,65.1,29.05,SSW,203,0.0,0.0,73,0.00,,,0.00,WUHU216HW,2013-09-05 02:46:00,
2013-09-04 21:51:00,74.1,64.9,29.06,SSW,203,0.0,0.0,73,0.00,,,0.00,WUHU216HW,2013-09-05 02:51:00,
2013-09-04 21:56:00,74.1,64.9,29.05,SSW,203,0.0,0.0,73,0.00,,,0.00,WUHU216HW,2013-09-05 02:56:00,
2013-09-04 22:01:00,73.9,64.7,29.05,SSW,203,0.0,0.0,73,0.00,,,0.00,WUHU216HW,2013-09-05 03:01:00,
2013-09-04 22:06:00,73.7,64.9,29.05,SSW,203,0.0,0.0,74,0.00,,,0.00,WUHU216HW,2013-09-05 03:06:00,
2013-09-04 22:12:00,73.7,64.9,29.06,SSW,203,0.0,0.0,74,0.00,,,0.00,WUHU216HW,2013-09-05 03:12:00,
2013-09-04 22:17:00,73.5,64.8,29.06,SSW,203,0.0,0.0,74,0.00,,,0.00,WUHU216HW,2013-09-05 03:17:00,
2013-09-04 22:22:00,73.5,64.8,29.06,SSW,203,0.0,0.0,74,0.00,,,0.00,WUHU216HW,2013-09-05 03:22:00,
2013-09-04 22:27:00,73.5,64.8,29.06,SSW,203,0.0,0.0,74,0.00,,,0.00,WUHU216HW,2013-09-05 03:27:00,
2013-09-04 22:32:00,73.5,64.8,29.06,SSW,203,0.0,0.0,74,0.00,,,0.00,WUHU216HW,2013-09-05 03:32:00,
2013-09-04 22:37:00,73.4,64.6,29.07,SSW,203,0.0,0.0,74,0.00,,,0.00,WUHU216HW,2013-09-05 03:37:00,
2013-09-04 22:42:00,73.2,64.4,29.07,SSW,203,0.0,0.0,74,0.00,,,0.00,WUHU216HW,2013-09-05 03:42:00,
2013-09-04 22:47:00,73.2,64.4,29.07,SSW,203,0.0,0.0,74,0.00,,,0.00,WUHU216HW,2013-09-05 03:47:00,
2013-09-04 22:52:00,73.0,64.2,29.08,SSW,203,0.0,0.0,74,0.00,,,0.00,WUHU216HW,2013-09-05 03:52:00,
2013-09-04 22:57:00,73.0,64.2,29.07,SSW,203,0.0,0.0,74,0.00,,,0.00,WUHU216HW,2013-09-05 03:57:00,
2013-09-04 23:01:00,73.0,64.2,29.07,SSW,203,0.0,0.0,74,0.00,,,0.00,WUHU216HW,2013-09-05 04:01:00,
2013-09-04 23:02:00,72.8,64.4,29.07,SSW,203,0.0,0.0,75,0.00,,,0.00,WUHU216HW,2013-09-05 04:02:00,
2013-09-04 23:03:00,72.8,64.4,29.07,SSW,203,0.0,0.0,75,0.00,,,0.00,WUHU216HW,2013-09-05 04:03:00,
2013-09-04 23:05:00,72.8,64.4,29.07,SSW,203,0.0,0.0,75,0.00,,,0.00,WUHU216HW,2013-09-05 04:05:00,
2013-09-04 23:10:00,72.6,64.3,29.07,SSW,203,0.0,0.0,75,0.00,,,0.00,WUHU216HW,2013-09-05 04:10:00,
2013-09-04 23:15:00,72.6,64.3,29.07,SSW,203,0.0,0.0,75,0.00,,,0.00,WUHU216HW,2013-09-05 04:15:00,
2013-09-04 23:20:00,72.6,64.3,29.08,SSW,203,0.0,0.0,75,0.00,,,0.00,WUHU216HW,2013-09-05 04:20:00,
2013-09-04 23:25:00,72.5,64.1,29.08,SSW,203,0.0,0.0,75,0.00,,,0.00,WUHU216HW,2013-09-05 04:25:00,
2013-09-04 23:30:00,72.3,64.3,29.08,SSW,203,0.0,0.0,76,0.00,,,0.00,WUHU216HW,2013-09-05 04:30:00,
2013-09-04 23:35:00,72.3,64.3,29.08,SSW,203,0.0,0.0,76,0.00,,,0.00,WUHU216HW,2013-09-05 04:35:00,
2013-09-04 23:40:00,72.3,64.3,29.08,SSW,203,0.0,0.0,76,0.00,,,0.00,WUHU216HW,2013-09-05 04:40:00,
2013-09-04 23:45:00,72.3,64.3,29.08,SSW,203,0.0,0.0,76,0.00,,,0.00,WUHU216HW,2013-09-05 04:45:00,
2013-09-04 23:50:00,72.3,64.7,29.08,SSW,203,0.0,0.0,77,0.00,,,0.00,WUHU216HW,2013-09-05 04:50:00,
2013-09-04 23:55:00,72.3,64.7,29.08,SSW,203,0.0,0.0,77,0.00,,,0.00,WUHU216HW,2013-09-05 04:55:00,